Hourly Data Report for August 04, 2003

SHERBROOKE A
QUEBEC

45°26'00.000" N
71°41'00.000" W
241.40 m
7028124
71610
YSC

Download Data

Hourly Data (August 2003)
Hourly Data Report for August 4, 2003
TIME
LST
Temp Definition
°C
Dew Point Definition
°C
Rel Hum Definition
%
Precip. Amount Definition
mm

Wind Dir Definition
10's deg

Wind Spd Definition
km/h
Visibility Definition
km
Stn Press Definition
kPa
Hmdx Definition


Wind Chill Definition


Weather Definition


00:00 19.6 18.5 93   7 7 12.9 98.96     Rain
01:00 19.4 18.4 94   5 6 15.0 98.91      
02:00 19.8 18.9 95   10 6 9.7 98.87      
03:00 19.8 18.8 94   9 6 5.6 98.86      
04:00 20.1 19.1 94   11 9 6.4 98.84 27    
05:00 20.4 19.2 93   10 6 8.0 98.86 27   Rain
06:00 20.6 19.3 92   9 7 8.0 98.85 28    
07:00 21.9 20.2 90   10 4 19.3 98.85 30   Mostly Cloudy
08:00 24.0 21.1 84   10 7 19.3 98.79 33   Mostly Cloudy
09:00 26.1 21.2 74   15 7 24.1 98.76 35   Mostly Cloudy
10:00 25.9 21.2 75   17 7 19.3 98.78 34   Mostly Cloudy
11:00 27.8 20.8 66   17 15 24.1 98.74 36   Mostly Cloudy
12:00 28.1 20.2 62   18 7 24.1 98.65 36   Mostly Cloudy
13:00 27.5 20.4 65   16 19 24.1 98.62 35   Mostly Cloudy
14:00 26.8 21.4 72   13 13 24.1 98.56 36   Mostly Cloudy
15:00 27.5 21.6 70   15 13 24.1 98.52 36   Mostly Cloudy
16:00 26.7 21.4 73   15 11 24.1 98.50 35   Mostly Cloudy
17:00 25.6 20.7 74   16 9 15.0 98.48 34    
18:00 24.6 20.0 76   15 9 15.0 98.47 32    
19:00 23.6 20.2 81   11 7 15.0 98.49 31    
20:00 22.5 20.2 87   14 6 15.0 98.48 30    
21:00 22.3 20.3 88   30 13 15.0 98.54 30    
22:00 21.6 20.3 92   14 4 15.0 98.53 29    
23:00 21.3 20.3 94   8 9 2.6 98.49 29   Moderate Rain

Notes on Data Quality.

Legend

  • E = Estimated
  • M = Missing
  • NA = Not Available*
  • [empty] = Indicates an unobserved value
Date modified: